User: anonymous   Login
Location: Camp Creek
(33.9000°N, 111.8167°W)
Time: 15:03:36
(UTC-07:00)
Language:

Cosmos 2322 Rocket - Orbit

View from above orbital plane
View from above orbital plane
View from above satellite
View from above satellite

Ground track
Ground track

The orbit data is extracted from the following two-line orbital elements,

1 23705U 95058B   15209.53360304 -.00000092  00000-0 -23104-4 0  9992
2 23705 071.0209 035.9207 0014757 269.4012 090.5420 14.15069300 19629
Epoch (UTC): 28 July 2015 12:48:23
Eccentricity: 0.0014757
inclination: 71.0209°
perigee height: 831 km
apogee height: 853 km
right ascension of ascending node: 35.9207°
argument of perigee: 269.4012°
revolutions per day: 14.15069300
mean anomaly at epoch: 90.5420°
orbit number at epoch: 1962

The dashed part of the orbit path shows where the satellite is in the earth's shadow,  

DLR